Time,TemperatureF,DewpointF,PressureIn,WindDirection,WindDirectionDegrees,WindSpeedMPH,WindSpeedGustMPH,Humidity,HourlyPrecipIn,Conditions,Clouds,dailyrainin,SoftwareType,DateUTC
2013-02-07 00:00:00,25.9,-8.7,29.88,NW,318,5.6,5.6,21,0.00,,SKC,0.00,VWS V14.01,2013-02-07 05:00:00,
2013-02-07 00:01:00,25.9,-8.7,29.88,NW,318,4.8,4.8,21,0.00,,SKC,0.00,VWS V14.01,2013-02-07 05:01:00,
2013-02-07 00:06:00,25.9,-8.7,29.85,NNW,345,4.8,4.8,21,0.00,,SKC,0.00,VWS V14.01,2013-02-07 05:06:00,
2013-02-07 00:11:00,25.7,-8.8,29.85,NNW,338,0.0,0.0,21,0.00,,SKC,0.00,VWS V14.01,2013-02-07 05:11:00,
2013-02-07 00:16:00,25.5,-9.0,29.85,NNW,341,0.0,0.0,21,0.00,,SKC,0.00,VWS V14.01,2013-02-07 05:16:00,
2013-02-07 00:21:00,25.3,-9.1,29.88,ENE,73,0.0,0.0,21,0.00,,SKC,0.00,VWS V14.01,2013-02-07 05:21:00,
2013-02-07 00:26:00,25.3,-9.1,29.88,NE,56,0.0,0.0,21,0.00,,SKC,0.00,VWS V14.01,2013-02-07 05:26:00,
2013-02-07 00:31:00,25.2,-9.3,29.88,NE,56,0.0,0.0,21,0.00,,SKC,0.00,VWS V14.01,2013-02-07 05:31:00,
2013-02-07 00:36:00,25.0,-9.4,29.88,NE,56,0.0,0.0,21,0.00,,SKC,0.00,VWS V14.01,2013-02-07 05:36:00,
2013-02-07 00:41:00,25.0,-9.4,29.88,NE,56,0.0,0.0,21,0.00,,SKC,0.00,VWS V14.01,2013-02-07 05:41:00,
2013-02-07 00:46:00,25.0,-9.4,29.88,NNW,338,0.0,0.0,21,0.00,,SKC,0.00,VWS V14.01,2013-02-07 05:46:00,
2013-02-07 00:51:00,24.8,-8.6,29.88,NNW,338,0.0,0.0,22,0.00,,SKC,0.00,VWS V14.01,2013-02-07 05:51:00,
2013-02-07 00:56:00,24.8,-8.6,29.88,NW,323,4.0,4.0,22,0.00,,SKC,0.00,VWS V14.01,2013-02-07 05:56:00,
2013-02-07 01:01:00,24.6,-8.8,29.88,NW,323,0.0,2.2,22,0.00,,SKC,0.00,VWS V14.01,2013-02-07 06:01:00,
2013-02-07 01:06:00,24.4,-8.9,29.88,NW,323,0.0,0.0,22,0.00,,SKC,0.00,VWS V14.01,2013-02-07 06:06:00,
2013-02-07 01:11:00,24.4,-8.9,29.88,NW,323,0.0,0.0,22,0.00,,SKC,0.00,VWS V14.01,2013-02-07 06:11:00,
2013-02-07 01:16:00,24.3,-9.1,29.88,NW,323,0.0,0.0,22,0.00,,SKC,0.00,VWS V14.01,2013-02-07 06:16:00,
2013-02-07 01:21:00,23.9,-9.4,29.88,NW,323,0.0,0.0,22,0.00,,SKC,0.00,VWS V14.01,2013-02-07 06:21:00,
2013-02-07 01:25:00,23.7,-9.6,29.88,NW,323,0.0,0.0,22,0.00,,SKC,0.00,VWS V14.01,2013-02-07 06:25:00,
2013-02-07 01:30:00,23.7,-9.6,29.88,NW,323,0.0,0.0,22,0.00,,SKC,0.00,VWS V14.01,2013-02-07 06:30:00,
2013-02-07 01:35:00,23.7,-9.6,29.88,NW,323,0.0,0.0,22,0.00,,SKC,0.00,VWS V14.01,2013-02-07 06:35:00,
2013-02-07 01:40:00,23.7,-9.6,29.88,NW,323,0.0,0.0,22,0.00,,SKC,0.00,VWS V14.01,2013-02-07 06:40:00,
2013-02-07 01:45:00,23.7,-9.6,29.88,NW,323,0.0,0.0,22,0.00,,SKC,0.00,VWS V14.01,2013-02-07 06:45:00,
2013-02-07 01:50:00,23.7,-9.6,29.91,NW,323,0.0,0.0,22,0.00,,SKC,0.00,VWS V14.01,2013-02-07 06:50:00,
2013-02-07 01:55:00,23.9,-9.4,29.91,NW,323,0.0,0.0,22,0.00,,SKC,0.00,VWS V14.01,2013-02-07 06:55:00,
2013-02-07 02:00:00,23.7,-9.6,29.91,NW,323,0.0,0.0,22,0.00,,SKC,0.00,VWS V14.01,2013-02-07 07:00:00,
2013-02-07 02:05:00,23.4,-9.9,29.91,NW,323,0.0,0.0,22,0.00,,SKC,0.00,VWS V14.01,2013-02-07 07:05:00,
2013-02-07 02:10:00,23.0,-10.2,29.91,NW,323,0.0,0.0,22,0.00,,SKC,0.00,VWS V14.01,2013-02-07 07:10:00,
2013-02-07 02:15:00,22.8,-10.3,29.91,NW,323,0.0,0.0,22,0.00,,SKC,0.00,VWS V14.01,2013-02-07 07:15:00,
2013-02-07 02:20:00,22.6,-10.5,29.91,NW,323,0.0,0.0,22,0.00,,SKC,0.00,VWS V14.01,2013-02-07 07:20:00,
2013-02-07 02:25:00,22.6,-10.5,29.91,NW,323,0.0,0.0,22,0.00,,SKC,0.00,VWS V14.01,2013-02-07 07:25:00,
2013-02-07 02:30:00,22.5,-10.6,29.91,NW,323,0.0,0.0,22,0.00,,SKC,0.00,VWS V14.01,2013-02-07 07:30:00,
2013-02-07 02:35:00,22.3,-10.8,29.91,NW,323,0.0,0.0,22,0.00,,SKC,0.00,VWS V14.01,2013-02-07 07:35:00,
2013-02-07 02:40:00,22.1,-10.9,29.91,NW,323,0.0,0.0,22,0.00,,SKC,0.00,VWS V14.01,2013-02-07 07:40:00,
2013-02-07 02:45:00,21.9,-11.1,29.91,NW,323,0.0,0.0,22,0.00,,SKC,0.00,VWS V14.01,2013-02-07 07:45:00,
2013-02-07 02:50:00,21.7,-11.2,29.88,NNW,335,0.0,0.0,22,0.00,,SKC,0.00,VWS V14.01,2013-02-07 07:50:00,
2013-02-07 02:55:00,22.6,-2.1,29.88,NNW,335,0.0,0.0,33,0.00,,SKC,0.00,VWS V14.01,2013-02-07 07:55:00,
2013-02-07 03:00:00,23.0,-1.8,29.88,NNW,335,0.0,0.0,33,0.00,,SKC,0.00,VWS V14.01,2013-02-07 08:00:00,
2013-02-07 03:05:00,22.8,-2.0,29.91,NNW,335,0.0,0.0,33,0.00,,SKC,0.00,VWS V14.01,2013-02-07 08:05:00,
2013-02-07 03:10:00,22.5,-2.9,29.91,NNW,335,0.0,0.0,32,0.00,,SKC,0.00,VWS V14.01,2013-02-07 08:10:00,
2013-02-07 03:15:00,22.1,-4.6,29.91,NNW,335,0.0,0.0,30,0.00,,SKC,0.00,VWS V14.01,2013-02-07 08:15:00,
2013-02-07 03:20:00,21.9,-6.9,29.91,NNW,335,0.0,0.0,27,0.00,,SKC,0.00,VWS V14.01,2013-02-07 08:20:00,
2013-02-07 03:25:00,22.8,-1.3,29.91,NNW,335,0.0,0.0,34,0.00,,SKC,0.00,VWS V14.01,2013-02-07 08:25:00,
2013-02-07 03:30:00,22.8,-2.0,29.91,NNW,335,0.0,0.0,33,0.00,,SKC,0.00,VWS V14.01,2013-02-07 08:30:00,
2013-02-07 03:35:00,22.8,-2.6,29.91,NNW,335,0.0,0.0,32,0.00,,SKC,0.00,VWS V14.01,2013-02-07 08:35:00,
2013-02-07 03:40:00,22.5,-4.3,29.91,NNW,335,0.0,0.0,30,0.00,,SKC,0.00,VWS V14.01,2013-02-07 08:40:00,
2013-02-07 03:45:00,22.1,-4.6,29.91,North,11,4.8,4.8,30,0.00,,SKC,0.00,VWS V14.01,2013-02-07 08:45:00,
2013-02-07 03:50:00,22.1,-6.8,29.91,NNE,31,0.0,0.0,27,0.00,,SKC,0.00,VWS V14.01,2013-02-07 08:50:00,
2013-02-07 03:55:00,23.7,-1.8,29.91,NNE,31,0.0,0.0,32,0.00,,SKC,0.00,VWS V14.01,2013-02-07 08:55:00,
2013-02-07 04:00:00,23.2,-5.8,29.91,NNE,31,0.0,2.2,27,0.00,,SKC,0.00,VWS V14.01,2013-02-07 09:00:00,
2013-02-07 04:05:00,22.8,-6.1,29.91,NNE,31,0.0,0.0,27,0.00,,SKC,0.00,VWS V14.01,2013-02-07 09:05:00,
2013-02-07 04:10:00,22.6,-6.3,29.91,NNE,31,0.0,0.0,27,0.00,,SKC,0.00,VWS V14.01,2013-02-07 09:10:00,
2013-02-07 04:15:00,22.5,-6.5,29.91,NNE,31,0.0,0.0,27,0.00,,SKC,0.00,VWS V14.01,2013-02-07 09:15:00,
2013-02-07 04:20:00,24.6,1.5,29.91,NNE,31,0.0,0.0,36,0.00,,SKC,0.00,VWS V14.01,2013-02-07 09:20:00,
2013-02-07 04:25:00,24.8,0.4,29.91,NNE,31,0.0,0.0,34,0.00,,SKC,0.00,VWS V14.01,2013-02-07 09:25:00,
2013-02-07 04:30:00,23.5,-1.3,29.91,NNE,31,0.0,0.0,33,0.00,,SKC,0.00,VWS V14.01,2013-02-07 09:30:00,
2013-02-07 04:35:00,22.8,-2.0,29.94,NNE,31,0.0,0.0,33,0.00,,SKC,0.00,VWS V14.01,2013-02-07 09:35:00,
2013-02-07 04:40:00,22.3,-2.4,29.94,NNE,31,0.0,0.0,33,0.00,,SKC,0.00,VWS V14.01,2013-02-07 09:40:00,
2013-02-07 04:45:00,22.3,-1.8,29.94,NNE,31,0.0,0.0,34,0.00,,SKC,0.00,VWS V14.01,2013-02-07 09:45:00,
2013-02-07 04:50:00,21.9,-2.8,29.94,NNE,31,0.0,0.0,33,0.00,,SKC,0.00,VWS V14.01,2013-02-07 09:50:00,
2013-02-07 04:55:00,21.7,-2.9,29.94,NNE,31,0.0,0.0,33,0.00,,SKC,0.00,VWS V14.01,2013-02-07 09:55:00,
2013-02-07 05:00:00,21.6,-3.1,29.94,NNE,31,0.0,0.0,33,0.00,,SKC,0.00,VWS V14.01,2013-02-07 10:00:00,
2013-02-07 05:05:00,21.7,-2.9,29.94,NNE,30,0.0,0.0,33,0.00,,SKC,0.00,VWS V14.01,2013-02-07 10:05:00,
2013-02-07 05:10:00,22.5,-1.6,29.94,NNE,31,0.0,0.0,34,0.00,,SKC,0.00,VWS V14.01,2013-02-07 10:10:00,
2013-02-07 05:15:00,22.5,-2.3,29.94,NNE,31,0.0,0.0,33,0.00,,SKC,0.00,VWS V14.01,2013-02-07 10:15:00,
2013-02-07 05:20:00,22.3,-2.4,29.94,NNE,31,0.0,0.0,33,0.00,,SKC,0.00,VWS V14.01,2013-02-07 10:20:00,
2013-02-07 05:25:00,23.4,2.1,29.94,NNE,31,0.0,0.0,39,0.00,,SKC,0.00,VWS V14.01,2013-02-07 10:25:00,
2013-02-07 05:30:00,23.7,2.4,29.94,NNE,31,0.0,0.0,39,0.00,,SKC,0.00,VWS V14.01,2013-02-07 10:30:00,
2013-02-07 05:35:00,23.2,1.4,29.94,NNE,31,0.0,0.0,38,0.00,,SKC,0.00,VWS V14.01,2013-02-07 10:35:00,
2013-02-07 05:40:00,22.6,0.9,29.94,NNE,31,0.0,0.0,38,0.00,,SKC,0.00,VWS V14.01,2013-02-07 10:40:00,
2013-02-07 05:45:00,22.1,-0.2,29.94,NNE,31,0.0,0.0,37,0.00,,SKC,0.00,VWS V14.01,2013-02-07 10:45:00,
2013-02-07 05:50:00,21.6,-0.7,29.94,NNE,31,0.0,0.0,37,0.00,,SKC,0.00,VWS V14.01,2013-02-07 10:50:00,
2013-02-07 05:55:00,21.2,-1.0,29.94,NNE,31,0.0,0.0,37,0.00,,SKC,0.00,VWS V14.01,2013-02-07 10:55:00,
2013-02-07 06:00:00,21.0,-1.7,29.94,NNE,31,0.0,0.0,36,0.00,,SKC,0.00,VWS V14.01,2013-02-07 11:00:00,
2013-02-07 06:05:00,20.7,-2.1,29.94,NNE,31,0.0,0.0,36,0.00,,SKC,0.00,VWS V14.01,2013-02-07 11:05:00,
2013-02-07 06:10:00,20.5,-2.8,29.94,NNE,31,0.0,0.0,35,0.00,,SKC,0.00,VWS V14.01,2013-02-07 11:10:00,
2013-02-07 06:15:00,20.3,-3.0,29.94,NNE,31,0.0,0.0,35,0.00,,SKC,0.00,VWS V14.01,2013-02-07 11:15:00,
2013-02-07 06:20:00,20.1,-3.7,29.94,NNE,31,0.0,0.0,34,0.00,,SKC,0.00,VWS V14.01,2013-02-07 11:20:00,
2013-02-07 06:25:00,20.1,-3.7,29.94,NNE,31,0.0,0.0,34,0.00,,SKC,0.00,VWS V14.01,2013-02-07 11:25:00,
2013-02-07 06:30:00,20.1,-3.7,29.94,NNE,31,0.0,0.0,34,0.00,,SKC,0.00,VWS V14.01,2013-02-07 11:30:00,
2013-02-07 06:35:00,20.3,-3.6,29.94,NNE,27,0.0,2.2,34,0.00,,SKC,0.00,VWS V14.01,2013-02-07 11:35:00,
2013-02-07 06:40:00,20.3,-3.6,29.94,North,353,0.0,0.0,34,0.00,,SKC,0.00,VWS V14.01,2013-02-07 11:40:00,
2013-02-07 06:45:00,20.1,-3.7,29.94,North,0,4.0,4.0,34,0.00,,SKC,0.00,VWS V14.01,2013-02-07 11:45:00,
2013-02-07 06:50:00,19.9,-4.5,29.97,North,0,0.0,0.0,33,0.00,,SKC,0.00,VWS V14.01,2013-02-07 11:50:00,
2013-02-07 06:55:00,19.9,-4.5,29.97,North,0,0.0,0.0,33,0.00,,SKC,0.00,VWS V14.01,2013-02-07 11:55:00,
2013-02-07 07:00:00,19.9,-4.5,29.97,North,0,0.0,0.0,33,0.00,,SKC,0.00,VWS V14.01,2013-02-07 12:00:00,
2013-02-07 07:05:00,19.9,-4.5,29.97,North,0,0.0,0.0,33,0.00,,SKC,0.00,VWS V14.01,2013-02-07 12:05:00,
2013-02-07 07:10:00,20.1,-4.4,29.97,North,0,0.0,0.0,33,0.00,,SKC,0.00,VWS V14.01,2013-02-07 12:10:00,
2013-02-07 07:15:00,21.9,-0.9,29.97,North,0,0.0,0.0,36,0.00,,SKC,0.00,VWS V14.01,2013-02-07 12:15:00,
2013-02-07 07:20:00,21.9,-0.3,29.97,North,0,0.0,0.0,37,0.00,,SKC,0.00,VWS V14.01,2013-02-07 12:20:00,
2013-02-07 07:25:00,21.6,-0.1,29.97,North,0,0.0,0.0,38,0.00,,SKC,0.00,VWS V14.01,2013-02-07 12:25:00,
2013-02-07 07:30:00,21.2,0.1,29.97,North,0,0.0,0.0,39,0.00,,SKC,0.00,VWS V14.01,2013-02-07 12:30:00,
2013-02-07 07:35:00,21.0,-0.6,30.00,North,0,0.0,0.0,38,0.00,,SKC,0.00,VWS V14.01,2013-02-07 12:35:00,
2013-02-07 07:40:00,20.7,-1.5,30.00,North,0,0.0,0.0,37,0.00,,SKC,0.00,VWS V14.01,2013-02-07 12:40:00,
2013-02-07 07:45:00,20.5,-1.6,30.00,North,0,0.0,0.0,37,0.00,,SKC,0.00,VWS V14.01,2013-02-07 12:45:00,
2013-02-07 07:50:00,20.5,-1.6,30.00,North,0,0.0,0.0,37,0.00,,SKC,0.00,VWS V14.01,2013-02-07 12:50:00,
2013-02-07 07:55:00,20.7,-2.1,30.00,North,0,0.0,0.0,36,0.00,,SKC,0.00,VWS V14.01,2013-02-07 12:55:00,
2013-02-07 08:00:00,20.8,-1.9,30.00,North,0,0.0,0.0,36,0.00,,SKC,0.00,VWS V14.01,2013-02-07 13:00:00,
2013-02-07 08:05:00,21.0,-1.7,30.00,North,0,0.0,0.0,36,0.00,,SKC,0.00,VWS V14.01,2013-02-07 13:05:00,
2013-02-07 08:10:00,21.2,-2.2,30.00,North,0,0.0,0.0,35,0.00,,SKC,0.00,VWS V14.01,2013-02-07 13:10:00,
2013-02-07 08:15:00,21.6,-1.9,30.00,North,0,0.0,0.0,35,0.00,,SKC,0.00,VWS V14.01,2013-02-07 13:15:00,
2013-02-07 08:20:00,21.7,-2.3,30.00,North,0,0.0,0.0,34,0.00,,SKC,0.00,VWS V14.01,2013-02-07 13:20:00,
2013-02-07 08:25:00,21.9,-2.8,30.00,North,357,0.0,0.0,33,0.00,,SKC,0.00,VWS V14.01,2013-02-07 13:25:00,
2013-02-07 08:30:00,22.1,-2.6,30.00,North,357,0.0,0.0,33,0.00,,SKC,0.00,VWS V14.01,2013-02-07 13:30:00,
2013-02-07 08:35:00,22.3,-2.4,30.03,North,357,0.0,0.0,33,0.00,,SKC,0.00,VWS V14.01,2013-02-07 13:35:00,
2013-02-07 08:40:00,22.5,-2.3,30.03,North,357,0.0,0.0,33,0.00,,SKC,0.00,VWS V14.01,2013-02-07 13:40:00,
2013-02-07 08:45:00,22.5,-2.9,30.03,North,357,0.0,0.0,32,0.00,,SKC,0.00,VWS V14.01,2013-02-07 13:45:00,
2013-02-07 08:50:00,22.6,-2.8,30.03,North,5,0.0,0.0,32,0.00,,SKC,0.00,VWS V14.01,2013-02-07 13:50:00,
2013-02-07 08:55:00,22.8,-2.6,30.03,North,2,0.0,0.0,32,0.00,,SKC,0.00,VWS V14.01,2013-02-07 13:55:00,
2013-02-07 09:00:00,22.8,-4.0,30.03,NNE,32,4.8,4.8,30,0.00,,SKC,0.00,VWS V14.01,2013-02-07 14:00:00,
2013-02-07 09:05:00,23.0,-2.5,30.00,NNE,32,7.2,7.2,32,0.00,,SKC,0.00,VWS V14.01,2013-02-07 14:05:00,
2013-02-07 09:10:00,23.0,-3.8,30.00,North,357,0.0,0.0,30,0.00,,SKC,0.00,VWS V14.01,2013-02-07 14:10:00,
2013-02-07 09:15:00,23.2,-4.3,30.00,NNE,31,10.5,10.5,29,0.00,,SKC,0.00,VWS V14.01,2013-02-07 14:15:00,
2013-02-07 09:20:00,23.2,-4.3,30.00,NNW,342,0.0,2.7,29,0.00,,SKC,0.00,VWS V14.01,2013-02-07 14:20:00,
2013-02-07 09:25:00,23.4,-4.2,30.00,NE,38,0.0,0.0,29,0.00,,SKC,0.00,VWS V14.01,2013-02-07 14:25:00,
2013-02-07 09:30:00,23.4,-5.7,30.00,North,357,4.8,4.8,27,0.00,,SKC,0.00,VWS V14.01,2013-02-07 14:30:00,
2013-02-07 09:35:00,23.5,-5.5,30.00,East,82,0.0,0.0,27,0.00,,SKC,0.00,VWS V14.01,2013-02-07 14:35:00,
2013-02-07 09:40:00,23.9,-5.2,30.00,NNW,342,4.0,4.0,27,0.00,,SKC,0.00,VWS V14.01,2013-02-07 14:40:00,
2013-02-07 09:45:00,24.3,-7.3,30.00,ENE,61,5.6,5.6,24,0.00,,SKC,0.00,VWS V14.01,2013-02-07 14:45:00,
2013-02-07 09:50:00,24.4,-7.2,30.00,NE,41,7.2,7.2,24,0.00,,SKC,0.00,VWS V14.01,2013-02-07 14:50:00,
2013-02-07 09:55:00,24.4,-7.2,30.00,North,0,6.4,6.4,24,0.00,,SKC,0.00,VWS V14.01,2013-02-07 14:55:00,
2013-02-07 10:00:00,24.6,-7.0,30.00,NNE,23,4.0,4.0,24,0.00,,SKC,0.00,VWS V14.01,2013-02-07 15:00:00,
2013-02-07 10:05:00,24.8,-6.9,30.03,NNE,31,4.8,4.8,24,0.00,,SKC,0.00,VWS V14.01,2013-02-07 15:05:00,
2013-02-07 10:10:00,25.0,-6.7,30.03,North,357,0.0,4.9,24,0.00,,SKC,0.00,VWS V14.01,2013-02-07 15:10:00,
2013-02-07 10:15:00,25.3,-6.4,30.03,NE,38,0.0,0.0,24,0.00,,SKC,0.00,VWS V14.01,2013-02-07 15:15:00,
2013-02-07 10:20:00,25.5,-6.2,30.03,ESE,105,0.0,2.7,24,0.00,,SKC,0.00,VWS V14.01,2013-02-07 15:20:00,
2013-02-07 10:25:00,25.7,-8.8,30.03,ESE,102,6.4,6.4,21,0.00,,SKC,0.00,VWS V14.01,2013-02-07 15:25:00,
2013-02-07 10:29:00,25.9,-5.9,30.03,SE,144,0.0,0.0,24,0.00,,SKC,0.00,VWS V14.01,2013-02-07 15:29:00,
2013-02-07 10:35:00,26.1,-8.5,30.03,East,90,0.0,0.0,21,0.00,,SKC,0.00,VWS V14.01,2013-02-07 15:35:00,
2013-02-07 10:40:00,26.1,-8.5,30.03,NE,38,6.4,6.4,21,0.00,,SKC,0.00,VWS V14.01,2013-02-07 15:40:00,
2013-02-07 10:45:00,25.9,-8.7,30.03,NE,48,6.4,6.4,21,0.00,,SKC,0.00,VWS V14.01,2013-02-07 15:45:00,
2013-02-07 10:50:00,25.9,-8.7,30.03,North,9,0.0,0.0,21,0.00,,SKC,0.00,VWS V14.01,2013-02-07 15:50:00,
2013-02-07 10:55:00,26.1,-8.5,30.03,North,0,0.0,2.2,21,0.00,,SKC,0.00,VWS V14.01,2013-02-07 15:55:00,
2013-02-07 11:00:00,26.8,-3.5,30.03,North,357,0.0,0.0,26,0.00,,SKC,0.00,VWS V14.01,2013-02-07 16:00:00,
2013-02-07 11:05:00,27.5,-7.3,30.00,SE,135,4.0,4.0,21,0.00,,SKC,0.00,VWS V14.01,2013-02-07 16:05:00,
2013-02-07 11:10:00,27.3,-7.4,30.00,ESE,115,0.0,0.0,21,0.00,,SKC,0.00,VWS V14.01,2013-02-07 16:10:00,
2013-02-07 11:15:00,27.3,-7.4,30.00,ESE,118,0.0,3.1,21,0.00,,SKC,0.00,VWS V14.01,2013-02-07 16:15:00,
2013-02-07 11:20:00,27.3,-7.4,30.00,NNE,21,5.6,5.6,21,0.00,,SKC,0.00,VWS V14.01,2013-02-07 16:20:00,
2013-02-07 11:25:00,27.1,-7.6,30.00,NNE,27,4.0,4.0,21,0.00,,SKC,0.00,VWS V14.01,2013-02-07 16:25:00,
2013-02-07 11:30:00,27.1,-7.6,30.00,NNE,31,0.0,0.0,21,0.00,,SKC,0.00,VWS V14.01,2013-02-07 16:30:00,
2013-02-07 11:35:00,27.0,-7.8,30.00,ESE,121,0.0,0.0,21,0.00,,SKC,0.00,VWS V14.01,2013-02-07 16:35:00,
2013-02-07 11:40:00,27.0,-7.8,30.00,North,353,0.0,0.0,21,0.00,,SKC,0.00,VWS V14.01,2013-02-07 16:40:00,
2013-02-07 11:45:00,27.3,-7.4,30.00,NNE,30,7.2,7.2,21,0.00,,SKC,0.00,VWS V14.01,2013-02-07 16:45:00,
2013-02-07 11:50:00,27.3,-7.4,30.00,NE,39,0.0,5.4,21,0.00,,SKC,0.00,VWS V14.01,2013-02-07 16:50:00,
2013-02-07 11:55:00,27.3,-7.4,30.00,East,93,0.0,0.0,21,0.00,,SKC,0.00,VWS V14.01,2013-02-07 16:55:00,
2013-02-07 12:00:00,27.7,-7.2,30.00,WNW,303,0.0,2.2,21,0.00,,SKC,0.00,VWS V14.01,2013-02-07 17:00:00,
2013-02-07 12:05:00,28.6,-2.8,30.00,ESE,123,4.8,4.8,25,0.00,,SKC,0.00,VWS V14.01,2013-02-07 17:05:00,
2013-02-07 12:09:00,28.6,-7.4,30.00,NNE,19,4.8,4.8,20,0.00,,SKC,0.00,VWS V14.01,2013-02-07 17:09:00,
2013-02-07 12:14:00,28.2,-6.7,30.00,NE,34,0.0,3.6,21,0.00,,SKC,0.00,VWS V14.01,2013-02-07 17:14:00,
2013-02-07 12:19:00,28.2,-6.7,29.97,North,8,0.0,0.0,21,0.00,,SKC,0.00,VWS V14.01,2013-02-07 17:19:00,
2013-02-07 12:24:00,28.2,-6.7,29.97,NE,48,5.6,5.6,21,0.00,,SKC,0.00,VWS V14.01,2013-02-07 17:24:00,
2013-02-07 12:29:00,28.4,-6.5,29.97,NNE,32,0.0,0.0,21,0.00,,SKC,0.00,VWS V14.01,2013-02-07 17:29:00,
2013-02-07 12:34:00,28.6,-7.4,29.97,NNE,18,0.0,0.0,20,0.00,,SKC,0.00,VWS V14.01,2013-02-07 17:34:00,
2013-02-07 12:39:00,28.6,-7.4,29.97,SSW,194,4.8,4.8,20,0.00,,SKC,0.00,VWS V14.01,2013-02-07 17:39:00,
2013-02-07 12:44:00,28.6,-7.4,29.97,East,101,0.0,2.2,20,0.00,,SKC,0.00,VWS V14.01,2013-02-07 17:44:00,
2013-02-07 12:49:00,28.8,-7.2,29.97,SSE,151,4.8,4.8,20,0.00,,SKC,0.00,VWS V14.01,2013-02-07 17:49:00,
2013-02-07 12:54:00,28.9,-7.1,29.97,SE,142,7.2,7.2,20,0.00,,SKC,0.00,VWS V14.01,2013-02-07 17:54:00,
2013-02-07 12:59:00,28.9,-7.1,29.97,SSE,158,0.0,0.0,20,0.00,,SKC,0.00,VWS V14.01,2013-02-07 17:59:00,
2013-02-07 13:04:00,29.7,-3.6,29.97,South,191,5.6,5.6,23,0.00,,SKC,0.00,VWS V14.01,2013-02-07 18:04:00,
2013-02-07 13:09:00,29.7,-6.5,29.97,East,81,4.8,4.9,20,0.00,,SKC,0.00,VWS V14.01,2013-02-07 18:09:00,
2013-02-07 13:14:00,29.7,-6.5,29.97,North,6,0.0,4.0,20,0.00,,SKC,0.00,VWS V14.01,2013-02-07 18:14:00,
2013-02-07 13:19:00,29.3,-6.8,29.97,NNW,332,0.0,3.6,20,0.00,,SKC,0.00,VWS V14.01,2013-02-07 18:19:00,
2013-02-07 13:24:00,29.1,-6.9,29.97,ENE,74,0.0,0.0,20,0.00,,SKC,0.00,VWS V14.01,2013-02-07 18:24:00,
2013-02-07 13:29:00,29.5,-6.6,29.97,SSE,157,4.8,4.8,20,0.00,,SKC,0.00,VWS V14.01,2013-02-07 18:29:00,
2013-02-07 13:34:00,29.5,-6.6,29.97,SE,128,4.8,4.8,20,0.00,,SKC,0.00,VWS V14.01,2013-02-07 18:34:00,
2013-02-07 13:39:00,29.5,-2.0,29.97,NE,50,0.0,0.0,25,0.00,,SKC,0.00,VWS V14.01,2013-02-07 18:39:00,
2013-02-07 13:44:00,31.1,-2.4,29.97,SE,126,6.4,6.4,23,0.00,,SKC,0.00,VWS V14.01,2013-02-07 18:44:00,
2013-02-07 13:49:00,30.7,-2.7,29.97,WNW,288,0.0,0.0,23,0.00,,SKC,0.00,VWS V14.01,2013-02-07 18:49:00,
2013-02-07 13:54:00,30.4,-5.9,29.97,ESE,118,9.7,9.7,20,0.00,,SKC,0.00,VWS V14.01,2013-02-07 18:54:00,
2013-02-07 13:59:00,29.7,-6.5,29.97,East,84,0.0,0.0,20,0.00,,SKC,0.00,VWS V14.01,2013-02-07 18:59:00,
2013-02-07 14:04:00,29.5,-6.6,29.97,SW,222,7.2,7.2,20,0.00,,SKC,0.00,VWS V14.01,2013-02-07 19:04:00,
2013-02-07 14:09:00,29.5,-6.6,29.97,SW,218,4.8,4.8,20,0.00,,SKC,0.00,VWS V14.01,2013-02-07 19:09:00,
2013-02-07 14:14:00,29.7,-6.5,29.97,NE,55,6.4,6.4,20,0.00,,SKC,0.00,VWS V14.01,2013-02-07 19:14:00,
2013-02-07 14:19:00,29.8,-6.3,29.94,SSW,209,0.0,0.0,20,0.00,,SKC,0.00,VWS V14.01,2013-02-07 19:19:00,
2013-02-07 14:24:00,29.7,-6.5,29.94,SSE,159,8.9,8.9,20,0.00,,SKC,0.00,VWS V14.01,2013-02-07 19:24:00,
2013-02-07 14:29:00,29.5,-6.6,29.94,South,191,0.0,3.6,20,0.00,,SKC,0.00,VWS V14.01,2013-02-07 19:29:00,
2013-02-07 14:34:00,29.3,-6.8,29.94,NNE,20,0.0,3.1,20,0.00,,SKC,0.00,VWS V14.01,2013-02-07 19:34:00,
2013-02-07 14:39:00,29.3,-6.8,29.94,ENE,77,0.0,3.1,20,0.00,,SKC,0.00,VWS V14.01,2013-02-07 19:39:00,
2013-02-07 14:44:00,29.3,-6.8,29.94,SE,133,5.6,5.6,20,0.00,,SKC,0.00,VWS V14.01,2013-02-07 19:44:00,
2013-02-07 14:49:00,29.5,-6.6,29.94,SE,136,0.0,0.0,20,0.00,,SKC,0.00,VWS V14.01,2013-02-07 19:49:00,
2013-02-07 14:54:00,29.8,-6.3,29.94,SSE,151,4.8,4.8,20,0.00,,SKC,0.00,VWS V14.01,2013-02-07 19:54:00,
2013-02-07 14:59:00,29.8,-6.3,29.94,ESE,112,7.2,7.2,20,0.00,,SKC,0.00,VWS V14.01,2013-02-07 19:59:00,
2013-02-07 15:04:00,29.7,-6.5,29.94,North,357,0.0,2.7,20,0.00,,SKC,0.00,VWS V14.01,2013-02-07 20:04:00,
2013-02-07 15:09:00,29.5,-6.6,29.94,ESE,106,0.0,3.6,20,0.00,,SKC,0.00,VWS V14.01,2013-02-07 20:09:00,
2013-02-07 15:14:00,29.7,-6.5,29.94,ENE,68,0.0,0.0,20,0.00,,SKC,0.00,VWS V14.01,2013-02-07 20:14:00,
2013-02-07 15:19:00,29.8,-6.3,29.94,East,81,4.8,4.8,20,0.00,,SKC,0.00,VWS V14.01,2013-02-07 20:19:00,
2013-02-07 15:24:00,29.8,-6.3,29.94,South,178,4.0,4.0,20,0.00,,SKC,0.00,VWS V14.01,2013-02-07 20:24:00,
2013-02-07 15:29:00,30.2,-6.0,29.94,SSE,168,5.6,5.6,20,0.00,,SKC,0.00,VWS V14.01,2013-02-07 20:29:00,
2013-02-07 15:34:00,30.0,-6.2,29.94,ESE,106,4.0,4.0,20,0.00,,SKC,0.00,VWS V14.01,2013-02-07 20:34:00,
2013-02-07 15:39:00,29.8,-6.3,29.94,South,183,4.8,4.8,20,0.00,,SKC,0.00,VWS V14.01,2013-02-07 20:39:00,
2013-02-07 15:44:00,29.7,-6.5,29.94,SSE,168,4.8,4.8,20,0.00,,SKC,0.00,VWS V14.01,2013-02-07 20:44:00,
2013-02-07 15:49:00,29.7,-6.5,29.94,SSW,197,0.0,0.0,20,0.00,,SKC,0.00,VWS V14.01,2013-02-07 20:49:00,
2013-02-07 15:54:00,29.8,-6.3,29.94,ESE,119,4.8,4.8,20,0.00,,SKC,0.00,VWS V14.01,2013-02-07 20:54:00,
2013-02-07 15:59:00,29.8,-6.3,29.94,NE,49,0.0,0.0,20,0.00,,SKC,0.00,VWS V14.01,2013-02-07 20:59:00,
2013-02-07 16:04:00,30.2,-6.0,29.94,East,99,0.0,0.0,20,0.00,,SKC,0.00,VWS V14.01,2013-02-07 21:04:00,
2013-02-07 16:09:00,30.2,-6.0,29.94,North,9,5.6,5.6,20,0.00,,SKC,0.00,VWS V14.01,2013-02-07 21:09:00,
2013-02-07 16:14:00,30.0,-6.2,29.94,NE,37,0.0,0.0,20,0.00,,SKC,0.00,VWS V14.01,2013-02-07 21:14:00,
2013-02-07 16:19:00,30.0,-6.2,29.91,NE,37,0.0,0.0,20,0.00,,SKC,0.00,VWS V14.01,2013-02-07 21:19:00,
2013-02-07 16:24:00,30.2,-6.0,29.91,SE,138,0.0,2.2,20,0.00,,SKC,0.00,VWS V14.01,2013-02-07 21:24:00,
2013-02-07 16:29:00,29.8,-6.3,29.91,East,86,5.6,5.6,20,0.00,,SKC,0.00,VWS V14.01,2013-02-07 21:29:00,
2013-02-07 16:34:00,29.7,-6.5,29.91,East,82,4.0,4.0,20,0.00,,SKC,0.00,VWS V14.01,2013-02-07 21:34:00,
2013-02-07 16:39:00,29.8,-6.3,29.91,SSE,149,0.0,0.0,20,0.00,,SKC,0.00,VWS V14.01,2013-02-07 21:39:00,
2013-02-07 16:44:00,29.8,-6.3,29.91,ESE,102,4.8,4.8,20,0.00,,SKC,0.00,VWS V14.01,2013-02-07 21:44:00,
2013-02-07 16:49:00,29.7,-6.5,29.91,WNW,293,0.0,0.0,20,0.00,,SKC,0.00,VWS V14.01,2013-02-07 21:49:00,
2013-02-07 16:54:00,29.8,-6.3,29.91,ESE,121,0.0,0.0,20,0.00,,SKC,0.00,VWS V14.01,2013-02-07 21:54:00,
2013-02-07 16:59:00,29.8,-6.3,29.91,East,82,0.0,2.2,20,0.00,,SKC,0.00,VWS V14.01,2013-02-07 21:59:00,
2013-02-07 17:04:00,29.7,-6.5,29.91,SE,134,7.2,7.2,20,0.00,,SKC,0.00,VWS V14.01,2013-02-07 22:04:00,
2013-02-07 17:09:00,29.5,-6.6,29.91,SSE,154,0.0,0.0,20,0.00,,SKC,0.00,VWS V14.01,2013-02-07 22:09:00,
2013-02-07 17:14:00,29.5,-6.6,29.91,East,96,4.0,4.0,20,0.00,,SKC,0.00,VWS V14.01,2013-02-07 22:14:00,
2013-02-07 17:19:00,29.3,-6.8,29.91,ESE,122,4.8,4.8,20,0.00,,SKC,0.00,VWS V14.01,2013-02-07 22:19:00,
2013-02-07 17:24:00,29.1,-6.9,29.91,North,6,4.0,4.0,20,0.00,,SKC,0.00,VWS V14.01,2013-02-07 22:24:00,
2013-02-07 17:29:00,28.9,-7.1,29.91,ENE,61,0.0,2.2,20,0.00,,SKC,0.00,VWS V14.01,2013-02-07 22:29:00,
2013-02-07 17:34:00,28.9,-7.1,29.91,South,190,0.0,0.0,20,0.00,,SKC,0.00,VWS V14.01,2013-02-07 22:34:00,
2013-02-07 17:39:00,28.8,-7.2,29.91,South,190,0.0,0.0,20,0.00,,SKC,0.00,VWS V14.01,2013-02-07 22:39:00,
2013-02-07 17:44:00,28.8,-7.2,29.91,ESE,109,0.0,0.0,20,0.00,,SKC,0.00,VWS V14.01,2013-02-07 22:44:00,
2013-02-07 17:49:00,29.1,-4.1,29.91,ESE,102,0.0,0.0,23,0.00,,SKC,0.00,VWS V14.01,2013-02-07 22:49:00,
2013-02-07 17:54:00,29.5,-6.6,29.91,ENE,57,9.7,9.7,20,0.00,,SKC,0.00,VWS V14.01,2013-02-07 22:54:00,
2013-02-07 17:59:00,29.3,-6.8,29.91,East,86,0.0,0.0,20,0.00,,SKC,0.00,VWS V14.01,2013-02-07 22:59:00,
2013-02-07 18:04:00,28.9,-7.1,29.91,NE,50,0.0,0.0,20,0.00,,SKC,0.00,VWS V14.01,2013-02-07 23:04:00,
2013-02-07 18:09:00,28.6,-7.4,29.91,ESE,120,0.0,2.2,20,0.00,,SKC,0.00,VWS V14.01,2013-02-07 23:09:00,
2013-02-07 18:14:00,28.6,-7.4,29.91,NE,47,0.0,0.0,20,0.00,,SKC,0.00,VWS V14.01,2013-02-07 23:14:00,
2013-02-07 18:19:00,28.2,-6.7,29.91,NE,47,0.0,0.0,21,0.00,,SKC,0.00,VWS V14.01,2013-02-07 23:19:00,
2013-02-07 18:24:00,28.0,-6.8,29.91,NE,45,0.0,0.0,21,0.00,,SKC,0.00,VWS V14.01,2013-02-07 23:24:00,
2013-02-07 18:29:00,27.9,-7.0,29.91,ENE,58,4.0,4.0,21,0.00,,SKC,0.00,VWS V14.01,2013-02-07 23:29:00,
2013-02-07 18:34:00,27.9,-7.0,29.94,ENE,58,0.0,0.0,21,0.00,,SKC,0.00,VWS V14.01,2013-02-07 23:34:00,
2013-02-07 18:39:00,27.7,-7.2,29.94,NE,37,0.0,0.0,21,0.00,,SKC,0.00,VWS V14.01,2013-02-07 23:39:00,
2013-02-07 18:44:00,27.5,-7.3,29.94,NE,37,0.0,0.0,21,0.00,,SKC,0.00,VWS V14.01,2013-02-07 23:44:00,
2013-02-07 18:49:00,27.5,-7.3,29.94,NE,37,0.0,0.0,21,0.00,,SKC,0.00,VWS V14.01,2013-02-07 23:49:00,
2013-02-07 18:54:00,27.3,-7.4,29.94,NE,37,0.0,0.0,21,0.00,,SKC,0.00,VWS V14.01,2013-02-07 23:54:00,
2013-02-07 18:59:00,27.3,-7.4,29.94,NE,36,0.0,0.0,21,0.00,,SKC,0.00,VWS V14.01,2013-02-07 23:59:00,
2013-02-07 19:04:00,27.1,-7.6,29.94,NE,36,0.0,0.0,21,0.00,,SKC,0.00,VWS V14.01,2013-02-08 00:04:00,
2013-02-07 19:09:00,27.1,-7.6,29.94,NE,42,0.0,0.0,21,0.00,,SKC,0.00,VWS V14.01,2013-02-08 00:09:00,
2013-02-07 19:14:00,27.1,-7.6,29.94,NE,42,0.0,0.0,21,0.00,,SKC,0.00,VWS V14.01,2013-02-08 00:14:00,
2013-02-07 19:19:00,27.0,-7.8,29.94,NE,42,0.0,0.0,21,0.00,,SKC,0.00,VWS V14.01,2013-02-08 00:19:00,
2013-02-07 19:24:00,27.0,-7.8,29.94,NE,34,0.0,0.0,21,0.00,,SKC,0.00,VWS V14.01,2013-02-08 00:24:00,
2013-02-07 19:29:00,26.8,-7.9,29.94,NE,34,0.0,0.0,21,0.00,,SKC,0.00,VWS V14.01,2013-02-08 00:29:00,
2013-02-07 19:34:00,26.8,-7.9,29.94,NE,37,0.0,0.0,21,0.00,,SKC,0.00,VWS V14.01,2013-02-08 00:34:00,
2013-02-07 19:39:00,26.8,-7.9,29.94,NE,56,0.0,3.1,21,0.00,,SKC,0.00,VWS V14.01,2013-02-08 00:39:00,
2013-02-07 19:44:00,26.6,-8.1,29.94,ENE,74,0.0,0.0,21,0.00,,SKC,0.00,VWS V14.01,2013-02-08 00:44:00,
2013-02-07 19:49:00,26.8,-7.9,29.94,NNE,15,0.0,2.7,21,0.00,,SKC,0.00,VWS V14.01,2013-02-08 00:49:00,
2013-02-07 19:54:00,26.8,-7.9,29.94,NNE,15,0.0,0.0,21,0.00,,SKC,0.00,VWS V14.01,2013-02-08 00:54:00,
2013-02-07 19:59:00,26.6,-8.1,29.94,ENE,66,0.0,0.0,21,0.00,,SKC,0.00,VWS V14.01,2013-02-08 00:59:00,
2013-02-07 20:04:00,26.8,-7.9,29.94,ENE,66,0.0,0.0,21,0.00,,SKC,0.00,VWS V14.01,2013-02-08 01:04:00,
2013-02-07 20:08:00,26.6,-8.1,29.94,ENE,66,0.0,0.0,21,0.00,,SKC,0.00,VWS V14.01,2013-02-08 01:08:00,
2013-02-07 20:13:00,26.8,-7.9,29.94,ENE,66,0.0,0.0,21,0.00,,SKC,0.00,VWS V14.01,2013-02-08 01:13:00,
2013-02-07 20:18:00,26.6,-8.1,29.94,North,4,0.0,0.0,21,0.00,,SKC,0.00,VWS V14.01,2013-02-08 01:18:00,
2013-02-07 20:23:00,26.6,-5.3,29.94,NNE,32,0.0,0.0,24,0.00,,SKC,0.00,VWS V14.01,2013-02-08 01:23:00,
2013-02-07 20:28:00,26.8,-3.5,29.94,NNE,32,0.0,0.0,26,0.00,,SKC,0.00,VWS V14.01,2013-02-08 01:28:00,
2013-02-07 20:33:00,26.4,-5.5,29.94,NNE,32,0.0,0.0,24,0.00,,SKC,0.00,VWS V14.01,2013-02-08 01:33:00,
2013-02-07 20:38:00,26.1,-5.8,29.94,NNE,32,0.0,0.0,24,0.00,,SKC,0.00,VWS V14.01,2013-02-08 01:38:00,
2013-02-07 20:43:00,25.9,-5.9,29.94,North,7,0.0,0.0,24,0.00,,SKC,0.00,VWS V14.01,2013-02-08 01:43:00,
2013-02-07 20:48:00,25.7,-6.1,29.94,North,6,0.0,0.0,24,0.00,,SKC,0.00,VWS V14.01,2013-02-08 01:48:00,
2013-02-07 20:53:00,25.5,-6.2,29.94,NNW,343,0.0,3.1,24,0.00,,SKC,0.00,VWS V14.01,2013-02-08 01:53:00,
2013-02-07 20:58:00,25.5,-6.2,29.94,North,11,0.0,2.2,24,0.00,,SKC,0.00,VWS V14.01,2013-02-08 01:58:00,
2013-02-07 21:03:00,25.5,-6.2,29.94,NNE,13,4.0,4.0,24,0.00,,SKC,0.00,VWS V14.01,2013-02-08 02:03:00,
2013-02-07 21:08:00,25.7,-6.1,29.94,North,5,6.4,6.4,24,0.00,,SKC,0.00,VWS V14.01,2013-02-08 02:08:00,
2013-02-07 21:13:00,25.7,-6.1,29.94,NNE,14,0.0,2.7,24,0.00,,SKC,0.00,VWS V14.01,2013-02-08 02:13:00,
2013-02-07 21:18:00,25.5,-6.2,29.91,North,353,4.8,4.8,24,0.00,,SKC,0.00,VWS V14.01,2013-02-08 02:18:00,
2013-02-07 21:23:00,25.5,-6.2,29.91,NNE,16,4.8,4.8,24,0.00,,SKC,0.00,VWS V14.01,2013-02-08 02:23:00,
2013-02-07 21:28:00,25.5,-6.2,29.91,North,357,5.6,5.6,24,0.00,,SKC,0.00,VWS V14.01,2013-02-08 02:28:00,
2013-02-07 21:33:00,25.5,-6.2,29.91,North,6,4.0,4.0,24,0.00,,SKC,0.00,VWS V14.01,2013-02-08 02:33:00,
2013-02-07 21:38:00,25.5,-6.2,29.91,NNW,341,4.8,4.8,24,0.00,,SKC,0.00,VWS V14.01,2013-02-08 02:38:00,
2013-02-07 21:43:00,25.5,-6.2,29.91,NNE,17,4.8,4.8,24,0.00,,SKC,0.00,VWS V14.01,2013-02-08 02:43:00,
2013-02-07 21:48:00,25.5,-6.2,29.91,NNE,20,0.0,0.0,24,0.00,,SKC,0.00,VWS V14.01,2013-02-08 02:48:00,
2013-02-07 21:53:00,25.5,-6.2,29.91,North,9,0.0,0.0,24,0.00,,SKC,0.00,VWS V14.01,2013-02-08 02:53:00,
2013-02-07 21:58:00,25.5,-6.2,29.91,North,349,0.0,0.0,24,0.00,,SKC,0.00,VWS V14.01,2013-02-08 02:58:00,
2013-02-07 22:03:00,25.3,-4.7,29.91,North,349,6.4,6.4,26,0.00,,SKC,0.00,VWS V14.01,2013-02-08 03:03:00,
2013-02-07 22:08:00,25.3,-4.7,29.91,NNW,341,5.6,5.6,26,0.00,,SKC,0.00,VWS V14.01,2013-02-08 03:08:00,
2013-02-07 22:13:00,25.3,-4.7,29.91,NNE,29,5.6,5.6,26,0.00,,SKC,0.00,VWS V14.01,2013-02-08 03:13:00,
2013-02-07 22:18:00,25.2,-4.9,29.91,North,0,4.0,4.0,26,0.00,,SKC,0.00,VWS V14.01,2013-02-08 03:18:00,
2013-02-07 22:23:00,25.2,-4.9,29.91,NNE,22,4.0,4.0,26,0.00,,SKC,0.00,VWS V14.01,2013-02-08 03:23:00,
2013-02-07 22:28:00,25.3,-4.7,29.91,North,357,5.6,5.6,26,0.00,,SKC,0.00,VWS V14.01,2013-02-08 03:28:00,
2013-02-07 22:33:00,25.5,-4.6,29.88,North,5,0.0,2.7,26,0.00,,SKC,0.00,VWS V14.01,2013-02-08 03:33:00,
2013-02-07 22:38:00,25.7,-4.4,29.88,North,4,0.0,3.1,26,0.00,,SKC,0.00,VWS V14.01,2013-02-08 03:38:00,
2013-02-07 22:43:00,25.9,-4.3,29.88,North,353,5.6,5.6,26,0.00,,SKC,0.00,VWS V14.01,2013-02-08 03:43:00,
2013-02-07 22:48:00,25.9,-2.0,29.88,North,357,6.4,6.4,29,0.00,,SKC,0.00,VWS V14.01,2013-02-08 03:48:00,
2013-02-07 22:53:00,26.1,-1.8,29.88,North,357,0.0,2.7,29,0.00,,SKC,0.00,VWS V14.01,2013-02-08 03:53:00,
2013-02-07 22:58:00,26.1,-1.8,29.88,East,80,4.8,4.8,29,0.00,,SKC,0.00,VWS V14.01,2013-02-08 03:58:00,
2013-02-07 23:03:00,26.1,-1.8,29.88,NNE,21,6.4,6.4,29,0.00,,SKC,0.00,VWS V14.01,2013-02-08 04:03:00,
2013-02-07 23:08:00,26.2,-1.7,29.88,NNW,344,5.6,5.6,29,0.00,,SKC,0.00,VWS V14.01,2013-02-08 04:08:00,
2013-02-07 23:13:00,26.2,-1.7,29.88,NNE,16,5.6,5.6,29,0.00,,SKC,0.00,VWS V14.01,2013-02-08 04:13:00,
2013-02-07 23:18:00,26.4,-1.5,29.88,North,9,5.6,5.6,29,0.00,,SKC,0.00,VWS V14.01,2013-02-08 04:18:00,
2013-02-07 23:23:00,26.6,0.1,29.88,NNE,21,8.9,8.9,31,0.00,,SKC,0.00,VWS V14.01,2013-02-08 04:23:00,
2013-02-07 23:28:00,26.6,0.1,29.88,NNE,33,5.6,5.6,31,0.00,,SKC,0.00,VWS V14.01,2013-02-08 04:28:00,
2013-02-07 23:33:00,26.8,0.2,29.88,NNE,32,10.5,10.5,31,0.00,,SKC,0.00,VWS V14.01,2013-02-08 04:33:00,
2013-02-07 23:38:00,27.0,0.4,29.85,North,5,7.2,7.2,31,0.00,,SKC,0.00,VWS V14.01,2013-02-08 04:38:00,
2013-02-07 23:43:00,27.0,0.4,29.85,NE,47,7.2,7.2,31,0.00,,SKC,0.00,VWS V14.01,2013-02-08 04:43:00,
2013-02-07 23:48:00,27.0,0.4,29.85,NNE,22,5.6,5.6,31,0.00,,SKC,0.00,VWS V14.01,2013-02-08 04:48:00,
2013-02-07 23:53:00,27.1,0.5,29.85,NNE,16,4.8,4.8,31,0.00,,SKC,0.00,VWS V14.01,2013-02-08 04:53:00,
2013-02-07 23:58:00,27.1,0.5,29.85,NNE,18,4.8,4.8,31,0.00,,SKC,0.00,VWS V14.01,2013-02-08 04:58:00,